Location: Buckeye Ditch
(40.9104°N, 122.9517°W)
Time: 22:31:15
(UTC+00:00)

Transit 2A - Pass Details

Date: 23 May 2025
Orbit: 599 x 947 km, 66.7° (Epoch: 20 June)

Event Time Altitude Azimuth Distance (km) Brightness Sun altitude
Rises 15:08:09 0° 239° (WSW) 3,007 8.6 24.4°
Reaches altitude 10° 15:10:51 10° 252° (WSW) 2,048 7.8 24.9°
Maximum altitude 15:14:40 26° 309° (NW) 1,245 6.9 25.6°
Drops below altitude 10° 15:18:22 10° 6° (N) 1,963 8.4 26.3°
Sets 15:20:54 0° 20° (NNE) 2,857 9.3 26.8°
